Regional Weather Roundup
Issued by NWS

Home | Current Version | Previous Version | Text Only | Print | Product List | Glossary Off
Versions: 1 2 3 4 5 6 7 8 9 10 11 12 13 14 15 16 17 18 19 20 21 22 23 24 25 26 27 28 29 30 31 32 33 34 35 36 37 38 39 40 41 42 43 44 45 46 47 48 49 50

865
ASUS43 KLOT 231903
RWRIL

ILLINOIS REGIONAL WEATHER ROUNDUP
NATIONAL WEATHER SERVICE CHICAGO/ROMEOVILLE IL
100 PM CST TUE JAN 23 2018

NOTE: "FAIR" INDICATES FEW OR NO CLOUDS BELOW 12,000 FEET WITH NO
SIGNIFICANT WEATHER AND/OR OBSTRUCTIONS TO VISIBILITY.

* THESE STATIONS ARE NOT UNDER NWS QUALITY CONTROL. THEY ALSO MAY NOT
  REPORT WEATHER SUCH AS PRECIPITATION OR FOG.

ILZ001-002-007-009-015-016-024-232000-
NORTHWEST ILLINOIS

CITY           SKY/WX    TMP DP  RH WIND       PRES   REMARKS
MOLINE         CLOUDY    31  24  75 NW21G30   29.99R WCI  18
STERLING*      CLOUDY    31  27  85 NW14      29.95R WCI  21
SAVANNA*       CLOUDY    30  26  83 NW13G20   29.96R WCI  20
$$

ILZ003-004-008-010-011-017-018-232000-
NORTH CENTRAL ILLINOIS

CITY           SKY/WX    TMP DP  RH WIND       PRES   REMARKS
ROCKFORD       CLOUDY    31  24  75 NW14      29.92R WCI  21
FREEPORT*      CLOUDY    30  26  87 NW16      29.94R WCI  18
ROCHELLE*      CLOUDY    30  24  75 NW16G22   29.91R WCI  19
DE KALB*       CLOUDY    29  24  79 NW14      29.89R WCI  19
PERU*          CLOUDY    31  24  75 NW16      29.94R WCI  19
$$

ILZ005-006-012>014-019>023-232000-
NORTHEAST ILLINOIS

CITY           SKY/WX    TMP DP  RH WIND       PRES   REMARKS
CHICAGO-OHARE  CLOUDY    30  23  75 NW16      29.86R WCI  19
CHICAGO-MIDWAY CLOUDY    31  24  75 NW16      29.87R WCI  20
AURORA         CLOUDY    30  23  75 NW15      29.89R WCI  19
LANSING*       CLOUDY    31  27  86 NW10      29.87R WCI  22
JOLIET*        CLOUDY    32  26  78 NW7       29.90R WCI  26
WAUKEGAN       CLOUDY    29  24  82 NW8G17    29.85R WCI  21
DUPAGE AIRPORT CLOUDY    29  23  78 NW17      29.87R WCI  17
KANKAKEE*      CLOUDY   N/A N/A N/A NW14      29.89R
WHEELING       CLOUDY    30  24  78 NW14      29.88R WCI  19
MORRIS*        CLOUDY    31  26  81 NW12G20   29.90R WCI  22
NORTHERLY ISL    N/A     30  23  75 NW13        N/A  WCI  20
$$

LMZ740>746-232000-
SOUTHERN LAKE MICHIGAN

STATION/POSITION SKY/WX   TEMP    WIND        PRES    VSBY  WAVE
                          AIR SEA DIR/SP/G                  HT/PER
                          (F)     (DEG/KT/KT) (MB)    (MI)  (FT/S)
HARRISON CRIB              31     310/ 17/ 18   N/A
BURNHAM HARBOR             30     300/ 16/ 18   N/A
CALUMET HARBOR             31     280/ 10/ 17 1010.5R
BURNS HARBOR               31     320/ 15/ 19 1011.5R
MICHIGAN CITY              30     300/ 21/ 24   N/A
$$

ILZ025>027-034>036-040-047-049-050-058-095>099-232000-
WEST-CENTRAL ILLINOIS

CITY           SKY/WX    TMP DP  RH WIND       PRES   REMARKS
QUINCY         CLOUDY    32  27  81 NW17      30.04S WCI  21
GALESBURG*     CLOUDY    32  27  83 W21       29.99S WCI  20
MACOMB*        CLOUDY    32  28  83 NW20G28   30.04R WCI  20
JACKSONVILLE*  CLOUDY    32  27  80 W14G22    30.02S WCI  22
PITTSFIELD*    CLOUDY    33  28  80 NW16G24   30.05S WCI  23
$$

ILZ028>032-037-038-041>044-048-051>054-059>061-232000-
CENTRAL ILLINOIS

CITY           SKY/WX    TMP DP  RH WIND       PRES   REMARKS
BLOOMINGTON    CLOUDY    31  26  82 NW22G28   29.94R WCI  18
DECATUR        CLOUDY    32  28  85 W18       29.97R WCI  20
PEORIA         CLOUDY    32  25  75 NW17G29   29.97R WCI  21
LACON*         CLOUDY    32  25  76 NW9       29.95R WCI  24
LINCOLN*       CLOUDY    33  28  81 W8        29.98R WCI  26
SPRINGFIELD    CLOUDY    33  27  78 NW20G26   30.01R WCI  21
TAYLORVILLE    CLOUDY    32  27  82 W13G23    30.01R WCI  22
$$

ILZ033-039-045-046-055>057-062-063-232000-
EAST-CENTRAL ILLINOIS

CITY           SKY/WX    TMP DP  RH WIND       PRES   REMARKS
CHAMPAIGN      CLOUDY    33  30  88 W21G29    29.93R WCI  21
DANVILLE*      CLOUDY    34  33  95 W13       29.87R WCI  25
RANTOUL*       CLOUDY    34  32  94 NW17G24   29.92R WCI  23
MATTOON        CLOUDY    33  30  88 W20G26    29.96R WCI  21
$$

ILZ079-100>102-232000-
SOUTHWEST ILLINOIS

CITY           SKY/WX    TMP DP  RH WIND       PRES   REMARKS
ALTON          CLOUDY    34  28  80 W16G23    30.05R WCI  23
BELLEVILLE     CLOUDY    36  25  64 W15       30.05R WCI  27
CAHOKIA*       CLOUDY    36  25  64 NW18G28   30.07R WCI  26
SPARTA*        CLOUDY    35  29  80 W12G18    30.07S WCI  26
$$

ILZ064>066-069>071-074>076-080>082-084>086-088>090-092>094-232000-
SOUTH-CENTRAL ILLINOIS

CITY           SKY/WX    TMP DP  RH WIND       PRES   REMARKS
CARBONDALE     CLOUDY    37  29  72 NW12      30.07R WCI  29
CAIRO*         CLOUDY    39  31  73 W13       30.09S WCI  31
EFFINGHAM*     DRIZZLE   33  32  97 W14G20    30.02R WCI  23
MT. VERNON     CLOUDY    34  31  88 VRB7      30.05R WCI  28
CENTRALIA*     CLOUDY    34  31  87 W18G30    30.04R WCI  23
SALEM*         CLOUDY    34  31  88 NW15      30.04R FOG     WCI  24
METROPOLIS*    CLOUDY    39  31  71 W9        30.08R WCI  33
$$

ILZ067-068-072-073-078-083-087-091-232000-
SOUTHEAST ILLINOIS

CITY           SKY/WX    TMP DP  RH WIND       PRES   REMARKS
LAWRENCEVILLE  CLOUDY    37  32  82 W14G26    29.99R WCI  28
FLORA*         CLOUDY    36  31  82 W20G29    30.02R WCI  25
FAIRFIELD*     RAIN      35  32  89 W7        30.03R WCI  29
HARRISBURG*    CLOUDY    38  31  77 W16       30.06R WCI  29
ROBINSON*      CLOUDY    35  32  90 W18G26    29.99R WCI  24
CARMI*         CLOUDY    36  32  85 W22G28    30.03R WCI  25
$$

ABBREVIATIONS USED IN REMARKS
   TC - TEMPERATURE IN CELSIUS
  WCI - WIND CHILL INDEX
   HX - HEAT INDEX
  VSB - VISIBILITY
$$





USA.gov is the U.S. government's official web portal to all federal, state and local government web resources and services.